Location: Newark
(50.0953°N, 2.1719°E)
Time: 06:42:26
(UTC+00:00)

N. Korean satellite - Pass Details

Date: 22 January 2020
Orbit: 456 x 505 km, 97.2° (Epoch: 27 February)

Event Time Altitude Azimuth Distance (km) Brightness Sun altitude
Rises 06:58:34 0° 358° (N) 2,522 9.9 -6.5°
Reaches altitude 10° 07:01:09 10° 338° (NNW) 1,649 8.8 -6.2°
Maximum altitude 07:03:28 17° 297° (WNW) 1,289 8.1 -5.8°
Drops below altitude 10° 07:05:48 10° 256° (WSW) 1,658 8.8 -5.5°
Sets 07:08:24 0° 235° (SW) 2,544 9.9 -5.1°
